Location: Wonder Lake State Park
(41.4960°N, 73.6562°W)
Time: 20:12:57
(UTC-04:00)

Daily predictions for brighter satellites

Satellite Brightness Start Highest point End
(mag) Time Altitude Azimuth Time Altitude Azimuth Time Altitude Azimuth
H-2A R/B 2.3 21:00:53 10° SSE 21:05:20 62° ENE 21:09:48 10° N
SPOT 5 3.5 21:01:46 10° SE 21:06:06 39° ENE 21:10:40 10° N
Cosmos 1707 Rocket 4.4 21:02:33 10° N 21:06:32 34° ENE 21:10:32 10° SE
Cosmos 2298 Rocket 4.4 21:02:32 10° S 21:07:31 43° ESE 21:12:31 10° NNE
Cosmos 2333 Rocket 3.6 21:03:26 10° N 21:08:14 26° NE 21:13:00 10° ESE
CZ-4 DEB 4.0 21:05:39 10° S 21:08:42 41° W 21:11:46 10° NNW
USA 186 3.7 21:06:58 10° SW 21:08:43 19° W 21:10:33 10° NW
Cosmos 2315 Rocket 4.2 21:03:22 10° N 21:09:29 57° E 21:15:33 10° SSE
Cosmos 1666 Rocket 4.5 21:06:55 10° SSE 21:10:47 31° E 21:14:42 10° NNE
Cosmos 2297 Rocket 3.9 21:11:07 10° SE 21:13:57 14° E 21:16:48 10° ENE
Cosmos 2219 Rocket 3.0 21:11:03 10° N 21:16:12 36° ENE 21:21:21 10° SE
Hubble Space Telescope 2.9 21:17:53 10° S 21:18:12 10° SSE 21:18:31 10° SSE
COSMOS 2428 2.8 21:14:47 10° NNW 21:20:30 77° ENE 21:26:11 10° SSE
OTV 4 1.7 21:18:31 10° SW 21:20:55 22° SSE 21:23:12 11° ESE
Cosmos 1726 3.0 21:17:41 10° N 21:21:12 35° ENE 21:24:31 11° SE
Cosmos 1680 Rocket 4.2 21:22:27 10° NNW 21:27:34 53° WSW 21:32:40 10° S
Lacrosse 4 Rocket 3.9 21:26:43 10° NNE 21:28:36 12° NE 21:30:30 10° ENE
Meteor 1-4 Rocket 3.6 21:26:31 10° N 21:29:54 32° ENE 21:32:34 14° SE
Cosmos 2058 2.8 21:26:51 10° S 21:30:55 77° E 21:35:02 10° N
Cosmos 2151 3.5 21:27:38 10° SSW 21:31:47 61° W 21:35:58 10° N
COSMOS 2455 4.4 21:28:32 10° N 21:33:17 23° NE 21:37:59 10° E
NOSS 3-1 (A) 3.4 21:31:51 10° SSW 21:37:43 80° ESE 21:44:13 10° NE
Terra 3.7 21:35:41 10° ESE 21:38:38 17° ENE 21:41:35 10° NNE
H-2A R/B 3.7 21:34:47 10° ESE 21:38:42 22° ENE 21:42:47 10° NNE
Cosmos 1898 Rocket 3.4 21:33:53 10° S 21:39:01 71° ESE 21:44:13 10° NNE
Cosmos 1980 4.4 21:35:16 10° N 21:40:36 41° ENE 21:44:58 15° SE
Cosmos 858 Rocket 4.5 21:36:08 10° S 21:41:17 67° ESE 21:46:27 10° NNE
Cosmos 2237 4.5 21:36:15 10° NNW 21:41:57 68° WSW 21:47:32 10° SSE
Delta 2 Rocket 4.1 21:40:01 10° WSW 21:43:13 27° SSW 21:44:57 18° SSE
MetOp-B 4.1 21:42:05 11° SSE 21:47:10 79° ENE 21:52:32 10° N
Cosmos 1939 Rocket 3.9 21:43:45 10° S 21:47:29 42° W 21:51:11 10° NNW
Cosmos 2219 4.1 21:43:53 10° SW 21:49:29 53° WNW 21:55:07 10° NNE
Tiangong 1 1.1 21:46:49 10° W 21:49:56 80° N 21:53:02 10° ENE
SPOT 1/Viking Rocket 3.7 21:46:52 15° SSE 21:51:03 60° ENE 21:56:09 10° N
Cosmos 2237 Rocket 2.7 21:46:52 10° NNW 21:52:23 47° ENE 21:56:27 18° SE
Cosmos 2150 Rocket 4.2 21:49:44 10° SSW 21:55:11 82° WNW 22:00:42 10° NNE
OAO 2 Rocket 3.9 21:50:18 10° WSW 21:55:15 40° S 21:59:04 16° ESE
Cosmos 2333 4.5 21:51:51 10° NNW 21:57:34 69° WSW 22:02:25 15° S
CZ-4 SHROUD 3.8 21:55:57 14° S 21:58:27 53° W 22:01:32 10° NNW
Cosmos 2082 4.0 21:53:29 10° S 21:58:57 49° ESE 22:04:27 10° NE
Sich 1 3.1 21:55:20 10° S 21:59:44 85° W 22:04:09 10° N
ATLAS 2AS CENTAUR R/B 3.2 21:52:50 10° S 21:59:54 50° ESE 22:07:32 10° NE
Cosmos 2360 Rocket 4.1 21:56:28 10° NW 22:00:52 24° WSW 22:05:15 10° SSW
Cosmos 1271 Rocket 2.7 21:59:08 10° N 22:03:01 80° ENE 22:05:31 21° SSE
Cosmos 1626 3.0 22:02:07 24° SE 22:03:31 31° E 22:06:53 10° NNE
Cosmos 1862 Rocket 4.2 22:01:46 10° N 22:05:50 38° ENE 22:07:54 24° SE
NOAA 11 4.2 22:03:23 19° SSE 22:07:19 69° ENE 22:12:46 10° N
YAOGAN 6 2.7 22:04:58 19° S 22:07:28 71° W 22:11:04 10° NNW
Cosmos 1633 Rocket 3.2 22:03:12 10° SSW 22:07:33 74° W 22:11:56 10° N
Iridium 2 3.8 22:05:33 23° SSE 22:07:47 57° E 22:11:34 10° NNE
ATLAS 3B R/B 3.4 22:01:44 10° NNW 22:08:26 43° NE 22:13:27 16° ESE
ERBS 2.5 22:06:02 10° SW 22:09:32 77° NW 22:13:01 10° NE
Cosmos 2242 Rocket 3.7 22:09:22 10° N 22:13:52 76° W 22:17:07 19° S
Envisat 4.3 22:09:21 10° SSW 22:13:58 35° W 22:18:38 10° NNW
CZ-4 R/B 3.8 22:10:12 10° NNE 22:15:07 69° ESE 22:18:51 17° S
CZ-4C R/B 3.4 22:16:16 31° SE 22:17:28 46° ENE 22:20:51 10° N
Cosmos 1703 3.3 22:14:44 16° SSW 22:17:51 80° W 22:21:47 10° N
USA 245 2.7 22:21:01 38° SW 22:21:29 45° WSW 22:23:40 10° NNW
Cosmos 192 4.4 22:20:25 10° NNW 22:25:19 65° ENE 22:27:44 29° SE
USA 32 4.3 22:23:25 10° N 22:28:39 69° W 22:32:31 18° S
Cosmos 2227 Rocket 2.2 22:25:06 10° SSW 22:30:46 88° WNW 22:36:29 10° NNE
Cosmos 1937 Rocket 4.2 22:28:01 10° SW 22:33:07 53° WNW 22:38:13 10° N
DMSP B5D2-2 4.3 22:32:11 10° NNE 22:37:17 51° E 22:39:27 31° SSE
Cosmos 990 Rocket 4.3 22:33:52 10° SSW 22:38:58 66° WNW 22:44:06 10° NNE
DELTA 2 DEB (DPAF) 4.2 22:41:00 33° S 22:43:00 79° WSW 22:47:32 10° NNW
Okean 1-7 4.2 22:44:25 10° NNE 22:48:03 26° ENE 22:48:46 25° E
SL-16 R/B 2.4 22:42:32 10° NNW 22:48:09 59° ENE 22:50:40 32° SE
ARGOS 3.8 22:44:45 21° SSW 22:48:13 50° W 22:53:28 10° NNW
Cosmos 2333 Rocket 2.8 22:47:13 10° NW 22:52:46 50° WSW 22:55:43 26° S
Cosmos 1455 2.8 22:50:52 10° NNW 22:54:35 52° W 22:55:49 35° SSW
OTV 4 2.8 22:54:07 10° WSW 22:54:46 15° WSW 22:54:46 15° WSW
Cosmos 2297 Rocket 2.3 22:51:53 12° SSW 22:57:14 78° WNW 23:02:56 10° NNE
Landsat 7 4.2 22:57:59 32° SSW 23:00:02 57° W 23:04:44 10° NNW
Cosmos 2219 Rocket 3.4 22:55:08 10° NW 23:00:03 32° WSW 23:03:07 19° SSW
NOSS 2-3 (C) 4.0 23:00:19 40° S 23:01:50 57° ESE 23:07:17 10° NE
SeaSat 1 4.3 23:00:35 15° E 23:03:08 22° NE 23:06:52 10° N
Cosmos 44 Rocket 3.5 23:04:46 42° S 23:06:14 58° ESE 23:11:23 10° NE
Cosmos 1703 Rocket 3.5 23:03:05 10° N 23:07:29 72° E 23:08:18 55° SE
Lacrosse 4 Rocket 1.4 23:03:31 10° NNW 23:07:59 89° NE 23:08:55 56° SSE
Cosmos 1269 Rocket 4.0 23:05:28 10° NNW 23:10:48 79° WSW 23:12:32 44° S
Cosmos 1933 3.2 23:09:02 10° N 23:13:08 87° W 23:13:41 66° S
Terra 2.2 23:14:22 38° SSW 23:15:54 57° W 23:20:36 10° NNW
H-2A R/B 2.6 23:15:25 32° SSW 23:17:41 53° W 23:23:01 10° NNW
COSMOS 2455 2.9 23:13:46 10° NNW 23:19:47 70° WSW 23:21:50 42° S
Cosmos 1603 4.4 23:17:00 10° NNW 23:22:27 44° ENE 23:24:29 32° ESE
NOSS 2-3 (D) 3.8 23:21:10 39° SSW 23:23:04 82° ESE 23:28:42 10° NE
Tiangong 1 2.5 23:23:31 10° WNW 23:25:23 33° WNW 23:25:23 33° WNW
Cosmos 1048 Rocket 4.1 23:21:37 10° NNW 23:26:58 72° WSW 23:28:25 48° S
Cosmos 1125 Rocket 4.0 23:23:43 23° SW 23:27:00 59° WNW 23:32:16 10° NNE
Cosmos 2074 Rocket 4.2 23:25:47 41° SE 23:27:35 54° E 23:33:43 10° NNE
Cosmos 158 Rocket 4.1 23:24:16 10° NNW 23:29:30 64° ENE 23:30:39 50° ESE
CZ-4B R/B 3.9 23:29:55 13° ENE 23:29:55 13° ENE 23:31:25 10° NE
Spot 4 4.3 23:29:24 41° SSW 23:30:41 52° W 23:35:27 10° NNW
Cosmos 2221 Rocket 3.8 23:26:14 10° NNW 23:30:46 67° W 23:31:33 55° SSW
Cosmos 1709 Rocket 4.2 23:27:42 28° SSW 23:30:58 63° W 23:37:02 10° N
Cosmos 2237 Rocket 3.8 23:31:34 10° NW 23:36:07 25° WSW 23:38:17 20° SW
Cosmos 372 Rocket 4.0 23:36:14 43° SSW 23:37:58 80° WNW 23:43:14 10° NNE
Cosmos 389 Rocket 2.8 23:35:06 10° NNW 23:38:11 64° NNW 23:38:11 64° NNW
Meteor 1-26 Rocket 4.2 23:39:18 10° NNW 23:44:57 76° W 23:46:26 50° SSW
Cosmos 1932 4.4 23:40:38 10° NNW 23:47:04 87° ENE 23:49:04 48° SE
Cosmos 1892 3.7 23:49:55 37° NE 23:49:55 37° NE 23:52:42 10° NNE
ATLAS 2AS CENTAUR R/B 4.1 23:43:50 10° WSW 23:51:05 44° NW 23:58:47 10° NNE
H-2A R/B 3.6 23:48:30 10° NNE 23:51:48 33° ENE 23:51:48 33° ENE
